| time (UTC) | temp F | wind direction | speed knots | gust knots | rain 1hr in | rain 24hr in | rain mn in | humidity % | barometer mb |
| 20260504141005 | 66 | 258 | 2.6 | 7.8 | 0.00 | 0.00 | 0.00 | 58 | 1014.8 |
| 20260504140504 | 66 | 247 | 1.7 | 6.1 | 0.00 | 0.00 | 0.00 | 58 | 1014.9 |
| 20260504130503 | 62 | 269 | 1.7 | 2.6 | 0.00 | 0.00 | 0.00 | 68 | 1015.6 |
| 20260504110504 | 51 | 224 | 0.0 | 0.9 | 0.00 | 0.00 | 0.00 | 85 | 1016.6 |
| 20260504100504 | 51 | 255 | 0.0 | 0.9 | 0.00 | 0.00 | 0.00 | 84 | 1016.4 |
| 20260504082004 | 49 | 180 | 0.9 | 4.3 | 0.00 | 0.00 | 0.00 | 83 | 1016.8 |
| 20260504081503 | 49 | 145 | 0.9 | 4.3 | 0.00 | 0.00 | 0.00 | 83 | 1016.8 |
| 20260504081004 | 49 | 171 | 0.0 | 5.2 | 0.00 | 0.00 | 0.00 | 83 | 1016.8 |
| 20260504080504 | 49 | 239 | 0.9 | 5.2 | 0.00 | 0.00 | 0.00 | 83 | 1016.8 |
| 20260504050504 | 42 | 143 | 0.0 | 0.0 | 0.00 | 0.00 | 0.00 | 77 | 1016.9 |
| 20260504050004 | 42 | 142 | 0.0 | 0.0 | 0.00 | 0.00 | 0.00 | 77 | 1016.7 |
| 20260504045504 | 42 | 141 | 0.0 | 0.0 | 0.00 | 0.00 | 0.00 | 77 | 1016.8 |
| 20260504045004 | 42 | 142 | 0.0 | 0.0 | 0.00 | 0.00 | 0.00 | 77 | 1016.8 |
| 20260504044004 | 42 | 142 | 0.0 | 0.0 | 0.00 | 0.00 | 0.00 | 77 | 1016.7 |
| 20260504043504 | 42 | 142 | 0.0 | 0.0 | 0.00 | 0.00 | 0.00 | 76 | 1016.8 |
| 20260504043004 | 43 | 142 | 0.0 | 0.0 | 0.00 | 0.00 | 0.00 | 76 | 1016.7 |
| 20260504042504 | 43 | 142 | 0.0 | 0.0 | 0.00 | 0.00 | 0.00 | 76 | 1016.7 |
| 20260504042004 | 43 | 142 | 0.0 | 0.0 | 0.00 | 0.00 | 0.00 | 76 | 1016.6 |
| 20260504041504 | 43 | 142 | 0.0 | 0.0 | 0.00 | 0.00 | 0.00 | 75 | 1016.5 |
| 20260504041004 | 43 | 139 | 0.0 | 0.0 | 0.00 | 0.00 | 0.00 | 75 | 1016.4 |
| 20260504040505 | 43 | 139 | 0.0 | 0.0 | 0.00 | 0.00 | 0.00 | 75 | 1016.3 |
| 20260504040004 | 43 | 139 | 0.0 | 0.0 | 0.00 | 0.00 | 0.00 | 75 | 1016.2 |
| 20260504035504 | 43 | 139 | 0.0 | 0.0 | 0.00 | 0.00 | 0.00 | 75 | 1016.3 |
| 20260504035004 | 43 | 139 | 0.0 | 0.0 | 0.00 | 0.00 | 0.00 | 75 | 1016.3 |
| 20260504034504 | 43 | 139 | 0.0 | 0.0 | 0.00 | 0.00 | 0.00 | 75 | 1016.2 |
| 20260504034004 | 43 | 139 | 0.0 | 0.0 | 0.00 | 0.00 | 0.00 | 75 | 1016.1 |
| 20260504033505 | 43 | 139 | 0.0 | 0.0 | 0.00 | 0.00 | 0.00 | 74 | 1016.1 |
| 20260504033003 | 43 | 139 | 0.0 | 0.0 | 0.00 | 0.00 | 0.00 | 74 | 1016.0 |
| 20260504032503 | 43 | 139 | 0.0 | 0.0 | 0.00 | 0.00 | 0.00 | 74 | 1016.1 |
| 20260504032005 | 44 | 139 | 0.0 | 0.0 | 0.00 | 0.00 | 0.00 | 73 | 1016.1 |
| 20260504031503 | 44 | 139 | 0.0 | 0.0 | 0.00 | 0.00 | 0.00 | 74 | 1016.0 |
| 20260504031004 | 44 | 139 | 0.0 | 0.0 | 0.00 | 0.00 | 0.00 | 74 | 1016.0 |
| 20260504030504 | 43 | 139 | 0.0 | 0.0 | 0.00 | 0.00 | 0.00 | 74 | 1016.0 |
| 20260504030004 | 44 | 139 | 0.0 | 0.0 | 0.00 | 0.00 | 0.00 | 73 | 1016.1 |
| 20260504025504 | 44 | 139 | 0.0 | 0.0 | 0.00 | 0.00 | 0.00 | 73 | 1016.1 |
| 20260504024503 | 44 | 139 | 0.0 | 0.0 | 0.00 | 0.00 | 0.00 | 73 | 1016.0 |
| 20260504024005 | 44 | 139 | 0.0 | 0.0 | 0.00 | 0.00 | 0.00 | 73 | 1016.0 |
| 20260504023504 | 44 | 139 | 0.0 | 0.0 | 0.00 | 0.00 | 0.00 | 72 | 1016.0 |
| 20260504022504 | 44 | 139 | 0.0 | 0.0 | 0.00 | 0.00 | 0.00 | 72 | 1016.0 |
| 20260504022005 | 44 | 139 | 0.0 | 0.0 | 0.00 | 0.00 | 0.00 | 72 | 1016.0 |
| 20260504021504 | 45 | 139 | 0.0 | 0.0 | 0.00 | 0.00 | 0.00 | 71 | 1016.1 |
| 20260504021004 | 45 | 139 | 0.0 | 0.0 | 0.00 | 0.00 | 0.00 | 71 | 1016.0 |
| 20260504020004 | 45 | 139 | 0.0 | 0.0 | 0.00 | 0.00 | 0.00 | 70 | 1015.8 |
| 20260504015505 | 45 | 144 | 0.0 | 0.0 | 0.00 | 0.00 | 0.00 | 70 | 1015.8 |
| 20260504014504 | 46 | 144 | 0.0 | 0.0 | 0.00 | 0.00 | 0.00 | 69 | 1015.8 |
| 20260504014005 | 46 | 144 | 0.0 | 0.0 | 0.00 | 0.00 | 0.00 | 68 | 1015.7 |
| 20260504013004 | 46 | 134 | 0.0 | 0.0 | 0.00 | 0.00 | 0.00 | 67 | 1015.7 |
| 20260504012503 | 46 | 133 | 0.0 | 0.0 | 0.00 | 0.00 | 0.00 | 67 | 1015.6 |
| 20260504012004 | 47 | 133 | 0.0 | 0.0 | 0.00 | 0.00 | 0.00 | 66 | 1015.6 |
| 20260504011504 | 47 | 133 | 0.0 | 0.0 | 0.00 | 0.00 | 0.00 | 65 | 1015.6 |
| 20260504010504 | 47 | 133 | 0.0 | 0.0 | 0.00 | 0.00 | 0.00 | 64 | 1015.4 |
| 20260504010004 | 48 | 113 | 0.0 | 0.0 | 0.00 | 0.00 | 0.00 | 64 | 1015.4 |
| 20260504005004 | 49 | 113 | 0.0 | 0.0 | 0.00 | 0.00 | 0.00 | 62 | 1015.3 |
| 20260504004504 | 49 | 113 | 0.0 | 0.0 | 0.00 | 0.00 | 0.00 | 61 | 1015.3 |
| 20260504003004 | 51 | 103 | 0.0 | 0.0 | 0.00 | 0.00 | 0.00 | 56 | 1015.0 |
| 20260504002505 | 51 | 103 | 0.0 | 0.0 | 0.00 | 0.00 | 0.00 | 55 | 1014.9 |
| 20260504002004 | 52 | 103 | 0.0 | 0.0 | 0.00 | 0.00 | 0.00 | 54 | 1014.8 |
| 20260504001504 | 52 | 103 | 0.0 | 0.0 | 0.00 | 0.00 | 0.00 | 53 | 1014.8 |
| 20260504001004 | 53 | 103 | 0.0 | 0.0 | 0.00 | 0.00 | 0.00 | 52 | 1014.8 |
| 20260504000504 | 53 | 103 | 0.0 | 0.0 | 0.00 | 0.00 | 0.00 | 51 | 1014.7 |
| 20260503235505 | 54 | 119 | 0.0 | 0.0 | 0.00 | 0.00 | 0.00 | 49 | 1014.8 |
| 20260503234504 | 55 | 119 | 0.0 | 0.9 | 0.00 | 0.00 | 0.00 | 48 | 1014.7 |
| 20260503234004 | 55 | 106 | 0.0 | 0.9 | 0.00 | 0.00 | 0.00 | 47 | 1014.7 |
| 20260503233504 | 56 | 65 | 0.0 | 0.9 | 0.00 | 0.00 | 0.00 | 46 | 1014.7 |
| 20260503233004 | 56 | 84 | 0.0 | 2.6 | 0.00 | 0.00 | 0.00 | 46 | 1014.6 |
| 20260503232504 | 56 | 229 | 0.0 | 2.6 | 0.00 | 0.00 | 0.00 | 45 | 1014.6 |
| 20260503231004 | 57 | 25 | 0.9 | 2.6 | 0.00 | 0.00 | 0.00 | 45 | 1014.6 |
| 20260503230504 | 57 | 256 | 0.9 | 1.7 | 0.00 | 0.00 | 0.00 | 43 | 1014.4 |
| 20260503225505 | 57 | 54 | 0.0 | 2.6 | 0.00 | 0.00 | 0.00 | 44 | 1014.5 |
| 20260503225004 | 58 | 347 | 0.9 | 5.2 | 0.00 | 0.00 | 0.00 | 45 | 1014.4 |
| 20260503224504 | 58 | 13 | 0.9 | 5.2 | 0.00 | 0.00 | 0.00 | 44 | 1014.3 |
| 20260503224004 | 58 | 80 | 0.0 | 2.6 | 0.00 | 0.00 | 0.00 | 43 | 1014.3 |
| 20260503223504 | 58 | 355 | 0.9 | 2.6 | 0.00 | 0.00 | 0.00 | 42 | 1014.4 |
| 20260503223004 | 58 | 105 | 0.9 | 2.6 | 0.00 | 0.00 | 0.00 | 42 | 1014.3 |
| 20260503222504 | 58 | 66 | 0.0 | 2.6 | 0.00 | 0.00 | 0.00 | 42 | 1014.3 |
| 20260503222005 | 58 | 308 | 0.9 | 8.7 | 0.00 | 0.00 | 0.00 | 41 | 1014.2 |
| 20260503221004 | 59 | 343 | 0.9 | 7.8 | 0.00 | 0.00 | 0.00 | 40 | 1014.4 |
| 20260503220504 | 59 | 11 | 1.7 | 10.4 | 0.00 | 0.00 | 0.00 | 39 | 1014.4 |
| 20260503220004 | 59 | 314 | 2.6 | 13.0 | 0.00 | 0.00 | 0.00 | 38 | 1014.4 |
| 20260503215004 | 59 | 358 | 4.3 | 12.2 | 0.00 | 0.00 | 0.00 | 38 | 1014.4 |
| 20260503214504 | 59 | 347 | 4.3 | 12.2 | 0.00 | 0.00 | 0.00 | 38 | 1014.4 |
| 20260503213505 | 59 | 24 | 2.6 | 12.2 | 0.00 | 0.00 | 0.00 | 39 | 1014.2 |
| 20260503212504 | 60 | 2 | 3.5 | 12.2 | 0.00 | 0.00 | 0.00 | 38 | 1014.1 |
| 20260503212004 | 60 | 315 | 1.7 | 6.1 | 0.00 | 0.00 | 0.00 | 38 | 1014.2 |
| 20260503211504 | 60 | 53 | 1.7 | 6.1 | 0.00 | 0.00 | 0.00 | 39 | 1014.2 |
| 20260503211005 | 60 | 4 | 1.7 | 7.0 | 0.00 | 0.00 | 0.00 | 38 | 1014.2 |
| 20260503210503 | 60 | 118 | 1.7 | 7.0 | 0.00 | 0.00 | 0.00 | 38 | 1014.1 |
| 20260503210005 | 60 | 17 | 0.9 | 8.7 | 0.00 | 0.00 | 0.00 | 38 | 1014.1 |
| 20260503205505 | 60 | 248 | 1.7 | 8.7 | 0.00 | 0.00 | 0.00 | 38 | 1014.1 |
| 20260503205005 | 60 | 330 | 1.7 | 5.2 | 0.00 | 0.00 | 0.00 | 39 | 1014.2 |
| 20260503204503 | 60 | 40 | 1.7 | 10.4 | 0.00 | 0.00 | 0.00 | 39 | 1014.1 |
| 20260503204005 | 60 | 227 | 1.7 | 10.4 | 0.00 | 0.00 | 0.00 | 38 | 1014.1 |
| 20260503202504 | 60 | 325 | 1.7 | 10.4 | 0.00 | 0.00 | 0.00 | 38 | 1014.1 |
| 20260503202004 | 60 | 341 | 3.5 | 10.4 | 0.00 | 0.00 | 0.00 | 37 | 1014.1 |
| 20260503201505 | 61 | 331 | 2.6 | 8.7 | 0.00 | 0.00 | 0.00 | 37 | 1014.3 |
| 20260503201004 | 61 | 348 | 1.7 | 5.2 | 0.00 | 0.00 | 0.00 | 38 | 1014.3 |
| 20260503200004 | 59 | 117 | 1.7 | 8.7 | 0.00 | 0.00 | 0.00 | 38 | 1014.4 |
| 20260503195504 | 60 | 343 | 3.5 | 7.8 | 0.00 | 0.00 | 0.00 | 38 | 1014.3 |
| 20260503195004 | 59 | 348 | 1.7 | 10.4 | 0.00 | 0.00 | 0.00 | 39 | 1014.3 |
| 20260503194505 | 59 | 112 | 0.9 | 10.4 | 0.00 | 0.00 | 0.00 | 38 | 1014.3 |
| 20260503194004 | 59 | 9 | 2.6 | 7.0 | 0.00 | 0.00 | 0.00 | 38 | 1014.4 |
| 20260503193004 | 59 | 37 | 2.6 | 8.7 | 0.00 | 0.00 | 0.00 | 38 | 1014.4 |
| 20260503192505 | 58 | 324 | 2.6 | 13.0 | 0.00 | 0.00 | 0.00 | 40 | 1014.6 |
| 20260503192006 | 59 | 347 | 2.6 | 13.0 | 0.00 | 0.00 | 0.00 | 40 | 1014.6 |
| 20260503191504 | 59 | 5 | 2.6 | 11.3 | 0.00 | 0.00 | 0.00 | 40 | 1014.4 |
| 20260503191004 | 58 | 316 | 2.6 | 11.3 | 0.00 | 0.00 | 0.00 | 38 | 1014.6 |
| 20260503190504 | 59 | 27 | 4.3 | 11.3 | 0.00 | 0.00 | 0.00 | 39 | 1014.7 |
| 20260503190004 | 59 | 353 | 1.7 | 13.0 | 0.00 | 0.00 | 0.00 | 39 | 1014.6 |
| 20260503185504 | 58 | 9 | 4.3 | 13.0 | 0.00 | 0.00 | 0.00 | 39 | 1014.7 |
| 20260503184504 | 58 | 328 | 2.6 | 10.4 | 0.00 | 0.00 | 0.00 | 39 | 1014.6 |
| 20260503183505 | 58 | 309 | 1.7 | 7.8 | 0.00 | 0.00 | 0.00 | 40 | 1014.7 |
| 20260503182505 | 57 | 327 | 0.9 | 13.9 | 0.00 | 0.00 | 0.00 | 40 | 1015.0 |
| 20260503181505 | 57 | 289 | 1.7 | 11.3 | 0.00 | 0.00 | 0.00 | 42 | 1015.1 |
| 20260503181005 | 57 | 358 | 6.1 | 11.3 | 0.00 | 0.00 | 0.00 | 40 | 1015.0 |
| 20260503180504 | 58 | 31 | 2.6 | 10.4 | 0.00 | 0.00 | 0.00 | 40 | 1014.9 |
| 20260503180004 | 58 | 309 | 1.7 | 10.4 | 0.00 | 0.00 | 0.00 | 42 | 1014.9 |
| 20260503175505 | 58 | 352 | 2.6 | 10.4 | 0.00 | 0.00 | 0.00 | 44 | 1015.0 |
| 20260503175005 | 57 | 346 | 2.6 | 10.4 | 0.00 | 0.00 | 0.00 | 42 | 1014.8 |
| 20260503174504 | 57 | 19 | 4.3 | 13.0 | 0.00 | 0.00 | 0.00 | 43 | 1014.7 |
| 20260503174004 | 57 | 355 | 3.5 | 13.0 | 0.00 | 0.00 | 0.00 | 42 | 1014.9 |
| 20260503173504 | 57 | 248 | 1.7 | 11.3 | 0.00 | 0.00 | 0.00 | 44 | 1014.9 |
| 20260503173004 | 57 | 23 | 5.2 | 11.3 | 0.00 | 0.00 | 0.00 | 43 | 1015.1 |
| 20260503172504 | 56 | 22 | 2.6 | 7.8 | 0.00 | 0.00 | 0.00 | 46 | 1014.9 |
| 20260503172004 | 56 | 321 | 1.7 | 8.7 | 0.00 | 0.00 | 0.00 | 45 | 1015.1 |
| 20260503171505 | 56 | 336 | 1.7 | 8.7 | 0.00 | 0.00 | 0.00 | 45 | 1015.0 |
| 20260503171006 | 55 | 322 | 1.7 | 10.4 | 0.00 | 0.00 | 0.00 | 47 | 1015.0 |
| 20260503170504 | 55 | 16 | 5.2 | 10.4 | 0.00 | 0.00 | 0.00 | 45 | 1015.0 |
| 20260503151004 | 53 | 347 | 1.7 | 8.7 | 0.00 | 0.00 | 0.00 | 53 | 1015.3 |